Location: Rometta
(44.2000°N, 10.0500°E)
Time: 21:17:44
(UTC+00:00)

ATLAS 5 CENTAUR R/B - Pass Details

Date: 20 January 2021
Orbit: 511 x 1147 km, 63.3° (Epoch: 16 February)

Event Time Altitude Azimuth Distance (km) Brightness Sun altitude
Rises 16:54:37 0° 229° (SW) 2,632 6.3 -7.6°
Reaches altitude 10° 16:56:43 10° 235° (SW) 1,780 5.4 -7.9°
Maximum altitude 17:00:35 52° 312° (NW) 712 2.1 -8.6°
Drops below altitude 10° 17:04:57 10° 30° (NNE) 2,018 3.8 -9.3°
Enters shadow 17:05:58 - 32° (NNE) 2,420 4.1 -9.5°
